Weather in Medellin

Colombia     6˚14′36″N   75˚34′45″W
temp.,
°C
wind,
m/s
gust,
m/s
humid.,
%
clouds,
%
prec.,
mm/h
press.,
hPa
HPBL,
m
28 november, sat
sat2801:00+14˚ssw1197100 8.4 101294
04:00+13˚sse1197100 1.7 101359
07:00+13˚ese1297100 2.8 1014143
10:00+15˚sse0187100 1.6 1014234
13:00+23˚w1150100 1.6 10091190
16:00+18˚ene138976 2.1 1008322
19:00+14˚ene119686 7.1 101160
22:00+14˚ese119799 4.4 101450
29 november, sun
sun2901:00+14˚e1196100 8.0 101360
04:00+13˚se0197100 1.6 101240
07:00+13˚wsw1197100 2.9 101474
10:00+18˚ssw0177100 0.6 1014506
13:00+22˚ese026280 1.4 10091355
16:00+18˚ene129081 5.8 1009370
19:00+15˚ene119590 11.9 101189
22:00+14˚e1196100 2.9 101477
30 november, mon
mon3001:00+13˚ne0197100 3.8 101348
04:00+13˚ese1197100 0.3 101349
07:00+13˚ene119599 0.4 101471
10:00+22˚sse015697 0.0 10131010
13:00+20˚sse118398 4.1 1010659
16:00+16˚wsw1294100 5.3 1008171
19:00+14˚wsw1195100 6.9 101174
22:00+14˚se0196100 1.3 101337
1 december, tue
tue101:00+14˚ese0198100 3.7 1012105
04:00+14˚ese1299100 17.8 1012165
07:00+13˚se1198100 34.8 101490
10:00+15˚wnw1194100 2.3 1014237
13:00+18˚w2376100 3.1 1011714
16:00+16˚wsw2392100 2.0 1009335
19:00+13˚wsw1296100 2.3 101182
22:00+12˚sw1197100 0.0 101359
2 december, wed
wed201:00+13˚ssw1197100 0.2 101258
04:00+13˚ese1198100 1.4 101155
07:00+13˚ese1198100 5.6 101485
10:00+15˚ene1288100 0.6 1014407
13:00+22˚nnw015997 1.2 10111102
16:00+17˚ene129199 3.3 1010451
19:00+14˚ne1195100 6.1 101380
22:00+13˚ene119796 0.9 101466